User: anonymous   Login
Location: Balaclava NSW 2575, Australia
(34.4510°S, 150.4953°E)
Time: 19:49:07
(UTC+10:00)
Language:

Vanguard 2 - Orbit

View from above orbital plane
View from above orbital plane
View from above satellite
View from above satellite

Ground track
Ground track

The orbit data is extracted from the following two-line orbital elements,

1 00011U 59001A   21165.92378107  .00000043  00000-0  18949-4 0  9991
2 00011  32.8647 134.3957 1467938 137.9154 234.4026 11.85801356318016
Epoch (UTC): 14 June 2021 22:10:14
Eccentricity: 0.1467938
inclination: 32.8647°
perigee height: 552 km
apogee height: 2937 km
right ascension of ascending node: 134.3957°
argument of perigee: 137.9154°
revolutions per day: 11.85801356
mean anomaly at epoch: 234.4026°
orbit number at epoch: 31801

The dashed part of the orbit path shows where the satellite is in the earth's shadow,  

DLR